| DS18B20 | SHTC3 | ||||||
|---|---|---|---|---|---|---|---|
| ID | Date d/m/Y & Time | data1 สูง | data2 ต่ำ | data3 นอก | temp pcb | hum pcb | Time |
| 7811 | 01/04/2026 12:52:47 | 32.0  | 30.6  | 32.7  | 31.1  | 68.3  | 12:52 |
| 7810 | 01/04/2026 12:48:05 | 31.9  | 30.6  | 32.7  | 31.1  | 68.2  | 12:48 |
| 7809 | 01/04/2026 12:43:23 | 31.9  | 30.5  | 32.7  | 31.1  | 68.4  | 12:43 |
| 7808 | 01/04/2026 12:38:41 | 31.8  | 30.5  | 32.7  | 31.1  | 68.4  | 12:38 |
| 7807 | 01/04/2026 12:33:59 | 31.8  | 30.4  | 32.7  | 31.1  | 68.5  | 12:33 |
| 7806 | 01/04/2026 12:29:17 | 31.7  | 30.4  | 32.6  | 31.0  | 68.5  | 12:29 |
| 7805 | 01/04/2026 12:24:35 | 31.6  | 30.3  | 32.8  | 31.1  | 68.5  | 12:24 |
| 7804 | 01/04/2026 12:19:53 | 31.5  | 30.2  | 33.0  | 30.9  | 68.6  | 12:19 |
| 7803 | 01/04/2026 12:15:11 | 31.4  | 30.2  | 32.7  | 30.6  | 68.6  | 12:15 |
| 7802 | 01/04/2026 12:10:29 | 31.4  | 30.2  | 32.7  | 30.7  | 68.7  | 12:10 |
| 7801 | 01/04/2026 12:05:47 | 31.3  | 30.1  | 32.7  | 30.5  | 68.7  | 12:05 |
| 7800 | 01/04/2026 12:01:05 | 31.2  | 30.1  | 32.7  | 30.5  | 68.8  | 12:01 |
| 7799 | 01/04/2026 11:56:23 | 31.2  | 30.0  | 32.6  | 30.5  | 68.9  | 11:56 |
| 7798 | 01/04/2026 11:51:41 | 31.1  | 29.9  | 32.8  | 30.5  | 69.0  | 11:51 |
| 7797 | 01/04/2026 11:46:59 | 31.0  | 29.9  | 32.5  | 30.3  | 69.0  | 11:46 |
| 7796 | 01/04/2026 11:42:17 | 30.9  | 29.9  | 32.4  | 30.2  | 69.0  | 11:42 |
| 7795 | 01/04/2026 11:37:35 | 30.9  | 29.8  | 32.4  | 30.2  | 69.0  | 11:37 |
| 7794 | 01/04/2026 11:32:54 | 30.8  | 29.8  | 32.0  | 30.2  | 69.2  | 11:32 |
| 7793 | 01/04/2026 11:28:10 | 30.7  | 29.7  | 32.3  | 30.1  | 69.3  | 11:28 |
| 7792 | 01/04/2026 11:23:28 | 30.5  | 29.6  | 32.3  | 30.1  | 69.5  | 11:23 |
| 7791 | 01/04/2026 11:18:46 | 30.4  | 29.6  | 32.0  | 30.0  | 69.6  | 11:18 |
| 7790 | 01/04/2026 11:14:04 | 30.4  | 29.6  | 31.5  | 29.9  | 69.5  | 11:14 |
| 7789 | 01/04/2026 11:09:22 | 30.3  | 29.5  | 31.5  | 29.8  | 69.4  | 11:09 |
| 7788 | 01/04/2026 11:04:42 | 30.3  | 29.4  | 31.5  | 29.9  | 69.4  | 11:04 |